Location: Korczew
(51.3586°N, 19.4491°E)
Time: 22:56:51
(UTC+00:00)

CZ-2C R/B - Pass Details

Date: 19 May 2025
Orbit: 702 x 902 km, 98.2° (Epoch: 16 June)

Event Time Altitude Azimuth Distance (km) Brightness Sun altitude
Rises 23:21:34 0° 17° (NNE) 3,523 8.1 -18.0°
Reaches altitude 10° 23:24:04 10° 23° (NNE) 2,588 7.0 -18.0°
Maximum altitude 23:29:43 51° 99° (E) 1,120 3.8 -17.8°
Enters shadow 23:32:59 25° 164° (SSE) 1,750 4.3 -17.7°
